Location: Mason Neck State Park
(38.6428°N, 77.1981°W)
Time: 16:03:11
(UTC-04:00)

Cosmos 2278 Rocket - Visible Passes

Search period start: 23 June 2018 00:00
Search period end: 03 July 2018 00:00
Orbit: 839 x 847 km, 71.0° (Epoch: 22 June)

Date Brightness Start Highest point End Pass type
(mag) Time Alt. Az. Time Alt. Az. Time Alt. Az.
23 Jun 3.3 21:37:10 12° SSE 21:41:03 23° E 21:45:24 10° NE visible
23 Jun 3.1 23:19:21 10° SW 23:24:46 46° WNW 23:30:14 10° N visible
24 Jun 3.4 21:22:17 10° SSE 21:26:32 22° E 21:30:46 10° NE visible
24 Jun 3.1 23:04:45 10° SW 23:10:12 48° WNW 23:15:42 10° NNE visible
25 Jun 3.4 21:07:53 10° SSE 21:12:00 21° E 21:16:08 10° NE visible
25 Jun 3.0 22:50:09 10° SW 22:55:38 50° WNW 23:01:10 10° NNE visible
26 Jun 3.0 22:35:33 10° SW 22:41:04 52° WNW 22:46:38 10° NNE visible
27 Jun 2.9 22:20:57 10° SW 22:26:30 55° WNW 22:32:05 10° NNE visible
28 Jun 2.9 22:06:22 10° SW 22:11:56 57° WNW 22:17:33 10° NNE visible
29 Jun 2.8 21:51:47 10° SW 21:57:23 60° WNW 22:03:01 10° NNE visible
30 Jun 2.8 21:37:13 10° SSW 21:42:49 63° WNW 21:48:28 10° NNE visible
01 Jul 2.7 21:22:38 10° SSW 21:28:15 66° WNW 21:33:56 10° NNE visible
01 Jul 5.6 23:12:50 10° NW 23:13:28 10° NW 23:14:07 10° NW visible
02 Jul 2.7 21:08:03 10° SSW 21:13:42 69° WNW 21:19:23 10° NNE visible
02 Jul 5.6 22:57:38 10° WNW 22:58:52 11° NW 23:00:08 10° NNW visible
